User: anonymous   Login
Location: Dittelbrunn
(50.0738°N, 10.2196°E)
Time: 23:26:06
(UTC+00:00)
Language:

Cosmos 1833 Rocket - Orbit

View from above orbital plane
View from above orbital plane
View from above satellite
View from above satellite

Ground track
Ground track

The orbit data is extracted from the following two-line orbital elements,

1 17590U 87027B   21127.75706329 -.00000218  00000-0 -85079-4 0  9994
2 17590  71.0053  38.4400 0007219 288.4427  71.5912 14.16798085765320
Epoch (UTC): 07 May 2021 18:10:10
Eccentricity: 0.0007219
inclination: 71.0053°
perigee height: 831 km
apogee height: 841 km
right ascension of ascending node: 38.4400°
argument of perigee: 288.4427°
revolutions per day: 14.16798085
mean anomaly at epoch: 71.5912°
orbit number at epoch: 76532

The dashed part of the orbit path shows where the satellite is in the earth's shadow,  

DLR